Location: Doux
(49.5045°N, 4.4321°E)
Time: 03:39:22
(UTC+00:00)

Cosmos 1782 Rocket - Pass Details

Date: 23 May 2024
Orbit: 602 x 629 km, 82.5° (Epoch: 17 June)

Event Time Altitude Azimuth Distance (km) Brightness Sun altitude
Rises 01:50:12 0° 346° (NNW) 2,901 7.7 -14.0°
Reaches altitude 10° 01:52:28 10° 342° (NNW) 1,986 6.7 -13.9°
Maximum altitude 01:56:46 56° 265° (W) 733 3.7 -13.5°
Enters shadow 01:59:44 19° 192° (SSW) 1,470 4.9 -13.2°
